Regional Weather Roundup
Issued by NWS

Home | Current Version | Previous Version | Text Only | Print | Product List | Glossary Off
Versions: 1 2 3 4 5 6 7 8 9 10 11 12 13 14 15 16 17 18 19 20 21 22 23 24 25 26 27 28 29 30 31 32 33 34 35 36 37 38 39 40 41 42 43 44 45 46 47 48 49 50

958
ASUS45 KCYS 230610
RWRWY

WYOMING REGIONAL WEATHER ROUNDUP
NATIONAL WEATHER SERVICE CHEYENNE WY
1200 AM MDT FRI JUN 23 2017

NOTE:  "FAIR" INDICATES FEW OR NO CLOUDS BELOW 12,000 FEET
WITH NO SIGNIFICANT WEATHER AND/OR OBSTRUCTIONS TO VISIBILITY.

WYZ001-230700-
YELLOWSTONE NATIONAL PARK

CITY           SKY/WX    TMP DP  RH WIND       PRES   REMARKS
LK YELLOWSTONE   N/A     43  27  53 CALM      30.36R
6HR MIN TEMP:  43; 6HR MAX TEMP:  62;

W YELLOWSTONE  NOT AVBL

$$
WYZ002>013-054>058-071-098>099-230700-
NORTHERN WYOMING

CITY           SKY/WX    TMP DP  RH WIND       PRES   REMARKS
JACKSON        FAIR      54  30  40 NE16      30.23R
CODY           FAIR      51  36  56 NW9       30.33R
GREYBULL       LGT RAIN  58  35  42 NW21      30.24R
6HR MIN TEMP:  58; 6HR MAX TEMP:  76; 6HR PCP: TRACE;

WORLAND        FAIR      58  32  37 N23G35    30.23R
6HR MIN TEMP:  58; 6HR MAX TEMP:  78;

SHERIDAN       CLOUDY    53  37  54 W13       30.27R
6HR MIN TEMP:  53; 6HR MAX TEMP:  71; 6HR PCP: TRACE;

BUFFALO        CLOUDY    52  32  46 N24G39    30.27R
6HR MIN TEMP:  52; 6HR MAX TEMP:  68;

GILLETTE       CLOUDY    55  35  47 N14       30.23R
6HR MIN TEMP:  55; 6HR MAX TEMP:  72;

NEWCASTLE      LGT RAIN  57  30  35 N20G31    30.15R

$$
WYZ014>020-022>026-101>103-230700-
CENTRAL WYOMING

CITY           SKY/WX    TMP DP  RH WIND       PRES   REMARKS
BIG PINEY      FAIR      46  30  53 N12       30.25R
6HR MIN TEMP:  46; 6HR MAX TEMP:  73;

PINEDALE       FAIR      45  30  57 NW7       30.26R
DUBOIS         CLOUDY    50  25  37 S7        30.25R
LANDER         FAIR      55  27  34 NE9       30.26R
6HR MIN TEMP:  55; 6HR MAX TEMP:  79;

RIVERTON       FAIR      56  27  32 NE12G24   30.24R
6HR MIN TEMP:  56; 6HR MAX TEMP:  77;

CASPER         CLOUDY    58  31  35 NE13G21   30.22R
6HR MIN TEMP:  58; 6HR MAX TEMP:  76;

DOUGLAS        CLOUDY    60  33  36 N12       30.19R
6HR MIN TEMP:  60; 6HR MAX TEMP:  75;


$$
WYZ021-027>030-104>119-230700-
SOUTHERN WYOMING

CITY           SKY/WX    TMP DP  RH WIND       PRES   REMARKS
EVANSTON       FAIR      58  32  37 N7        30.26R
6HR MIN TEMP:  58; 6HR MAX TEMP:  74;

KEMMERER         N/A     50  34  53 N6        30.27R
FORT BRIDGER   FAIR      57  34  41 SW5       30.28R
ROCK SPRINGS   FAIR      57  24  28 NE20G25   30.24R
6HR MIN TEMP:  56; 6HR MAX TEMP:  79;

DIXON          FAIR      56  25  29 E9        30.15R
RAWLINS        FAIR      56  34  43 N16       30.21R
6HR MIN TEMP:  56; 6HR MAX TEMP:  82;

SARATOGA       FAIR      52  37  58 SE8       30.17R
LARAMIE        CLOUDY    57  47  69 NE10      30.20R
6HR MIN TEMP:  56; 6HR MAX TEMP:  76;

CHEYENNE       CLOUDY    61  51  70 E10       30.15R
6HR MIN TEMP:  61; 6HR MAX TEMP:  75;

TORRINGTON     CLOUDY    60  50  69 NE13      30.07R
6HR MIN TEMP:  60; 6HR MAX TEMP:  81; 6HR PCP:  0.03;

PINE BLUFFS    LGT RAIN  59  55  88 E8        30.11R

$$




USA.gov is the U.S. government's official web portal to all federal, state and local government web resources and services.